Time,TemperatureF,DewpointF,PressureIn,WindDirection,WindDirectionDegrees,WindSpeedMPH,WindSpeedGustMPH,Humidity,HourlyPrecipIn,Conditions,Clouds,dailyrainin,SoftwareType,DateUTC
2013-02-02 00:22:00,23.0,-99.9,30.22,WNW,299,10.0,14.0,-999,-99.99,,,-99.99,,2013-02-02 05:22:00,
2013-02-02 00:33:00,23.0,-99.9,30.22,WNW,299,10.0,14.0,-999,-99.99,,,-99.99,,2013-02-02 05:33:00,
2013-02-02 00:42:00,23.0,-99.9,30.22,WNW,299,10.0,14.0,-999,-99.99,,,-99.99,,2013-02-02 05:42:00,
2013-02-02 00:52:00,22.0,-99.9,30.23,NW,318,9.0,13.0,-999,-99.99,,,-99.99,,2013-02-02 05:52:00,
2013-02-02 01:22:00,22.0,-99.9,30.23,NW,318,9.0,13.0,-999,-99.99,,,-99.99,,2013-02-02 06:22:00,
2013-02-02 01:32:00,22.0,-99.9,30.23,NW,318,9.0,13.0,-999,-99.99,,,-99.99,,2013-02-02 06:32:00,
2013-02-02 01:42:00,22.0,-99.9,30.23,NW,318,9.0,13.0,-999,-99.99,,,-99.99,,2013-02-02 06:42:00,
2013-02-02 01:52:00,22.0,-99.9,30.25,West,273,6.0,13.0,-999,-99.99,,,-99.99,,2013-02-02 06:52:00,
2013-02-02 02:21:00,22.0,-99.9,30.25,West,273,6.0,13.0,-999,-99.99,,,-99.99,,2013-02-02 07:21:00,
2013-02-02 02:32:00,22.0,-99.9,30.25,West,273,6.0,13.0,-999,-99.99,,,-99.99,,2013-02-02 07:32:00,
2013-02-02 02:42:00,22.0,-99.9,30.25,West,273,6.0,13.0,-999,-99.99,,,-99.99,,2013-02-02 07:42:00,
2013-02-02 02:52:00,21.0,-99.9,30.27,WNW,299,3.0,10.0,-999,-99.99,,,-99.99,,2013-02-02 07:52:00,
2013-02-02 03:21:00,21.0,-99.9,30.27,WNW,299,3.0,10.0,-999,-99.99,,,-99.99,,2013-02-02 08:21:00,
2013-02-02 03:32:00,21.0,-99.9,30.27,WNW,299,3.0,10.0,-999,-99.99,,,-99.99,,2013-02-02 08:32:00,
2013-02-02 03:42:00,21.0,-99.9,30.27,WNW,299,3.0,10.0,-999,-99.99,,,-99.99,,2013-02-02 08:42:00,
2013-02-02 03:52:00,20.0,-99.9,30.27,NNW,332,8.0,15.0,-999,-99.99,,,-99.99,,2013-02-02 08:52:00,
2013-02-02 04:22:00,20.0,-99.9,30.27,NNW,332,8.0,15.0,-999,-99.99,,,-99.99,,2013-02-02 09:22:00,
2013-02-02 04:32:00,20.0,-99.9,30.27,NNW,332,8.0,15.0,-999,-99.99,,,-99.99,,2013-02-02 09:32:00,
2013-02-02 04:42:00,20.0,-99.9,30.27,NNW,332,8.0,15.0,-999,-99.99,,,-99.99,,2013-02-02 09:42:00,
2013-02-02 04:52:00,20.0,-99.9,30.26,WNW,303,11.0,11.0,-999,-99.99,,,-99.99,,2013-02-02 09:52:00,
2013-02-02 05:22:00,20.0,-99.9,30.26,WNW,303,11.0,11.0,-999,-99.99,,,-99.99,,2013-02-02 10:22:00,
2013-02-02 05:32:00,20.0,-99.9,30.26,WNW,303,11.0,11.0,-999,-99.99,,,-99.99,,2013-02-02 10:32:00,
2013-02-02 05:42:00,20.0,-99.9,30.26,WNW,303,11.0,11.0,-999,-99.99,,,-99.99,,2013-02-02 10:42:00,
2013-02-02 05:52:00,19.0,-99.9,30.27,NNW,331,3.0,9.0,-999,-99.99,,,-99.99,,2013-02-02 10:52:00,
2013-02-02 06:22:00,19.0,-99.9,30.27,NNW,331,3.0,9.0,-999,-99.99,,,-99.99,,2013-02-02 11:22:00,
2013-02-02 06:32:00,19.0,-99.9,30.27,NNW,331,3.0,9.0,-999,-99.99,,,-99.99,,2013-02-02 11:32:00,
2013-02-02 06:42:00,19.0,-99.9,30.27,NNW,331,3.0,9.0,-999,-99.99,,,-99.99,,2013-02-02 11:42:00,
2013-02-02 06:52:00,19.0,-99.9,30.28,NNW,342,7.0,11.0,-999,-99.99,,,-99.99,,2013-02-02 11:52:00,
2013-02-02 07:22:00,19.0,-99.9,30.28,NNW,342,7.0,11.0,-999,-99.99,,,-99.99,,2013-02-02 12:22:00,
2013-02-02 07:32:00,19.0,-99.9,30.28,NNW,342,7.0,11.0,-999,-99.99,,,-99.99,,2013-02-02 12:32:00,
2013-02-02 07:42:00,19.0,-99.9,30.28,NNW,342,7.0,11.0,-999,-99.99,,,-99.99,,2013-02-02 12:42:00,
2013-02-02 07:52:00,19.0,-99.9,30.29,NNW,335,8.0,12.0,-999,-99.99,,,-99.99,,2013-02-02 12:52:00,
2013-02-02 08:22:00,19.0,-99.9,30.29,NNW,335,8.0,12.0,-999,-99.99,,,-99.99,,2013-02-02 13:22:00,
2013-02-02 08:33:00,19.0,-99.9,30.29,NNW,335,8.0,12.0,-999,-99.99,,,-99.99,,2013-02-02 13:33:00,
2013-02-02 08:43:00,19.0,-99.9,30.29,NNW,335,8.0,12.0,-999,-99.99,,,-99.99,,2013-02-02 13:43:00,
2013-02-02 08:52:00,20.0,-99.9,30.28,NW,318,6.0,10.0,-999,-99.99,,,-99.99,,2013-02-02 13:52:00,
2013-02-02 09:22:00,20.0,-99.9,30.28,NW,318,6.0,10.0,-999,-99.99,,,-99.99,,2013-02-02 14:22:00,
2013-02-02 09:33:00,20.0,-99.9,30.28,NW,318,6.0,10.0,-999,-99.99,,,-99.99,,2013-02-02 14:33:00,
2013-02-02 09:42:00,20.0,-99.9,30.28,NW,318,6.0,10.0,-999,-99.99,,,-99.99,,2013-02-02 14:42:00,
2013-02-02 09:52:00,23.0,-99.9,30.27,WNW,303,2.0,6.0,-999,-99.99,,,-99.99,,2013-02-02 14:52:00,
2013-02-02 10:22:00,23.0,-99.9,30.27,WNW,303,2.0,6.0,-999,-99.99,,,-99.99,,2013-02-02 15:22:00,
2013-02-02 10:33:00,23.0,-99.9,30.27,WNW,303,2.0,6.0,-999,-99.99,,,-99.99,,2013-02-02 15:33:00,
2013-02-02 10:42:00,23.0,-99.9,30.27,WNW,303,2.0,6.0,-999,-99.99,,,-99.99,,2013-02-02 15:42:00,
2013-02-02 10:52:00,25.0,-99.9,30.24,WSW,240,3.0,7.0,-999,-99.99,,,-99.99,,2013-02-02 15:52:00,
2013-02-02 11:23:00,25.0,-99.9,30.24,WSW,240,3.0,7.0,-999,-99.99,,,-99.99,,2013-02-02 16:23:00,
2013-02-02 11:32:00,25.0,-99.9,30.24,WSW,240,3.0,7.0,-999,-99.99,,,-99.99,,2013-02-02 16:32:00,
2013-02-02 11:42:00,25.0,-99.9,30.24,WSW,240,3.0,7.0,-999,-99.99,,,-99.99,,2013-02-02 16:42:00,
2013-02-02 11:52:00,28.0,-99.9,30.20,WSW,246,7.0,12.0,-999,-99.99,,,-99.99,,2013-02-02 16:52:00,
2013-02-02 12:23:00,28.0,-99.9,30.20,WSW,246,7.0,12.0,-999,-99.99,,,-99.99,,2013-02-02 17:23:00,
2013-02-02 12:33:00,28.0,-99.9,30.20,WSW,246,7.0,12.0,-999,-99.99,,,-99.99,,2013-02-02 17:33:00,
2013-02-02 12:42:00,28.0,-99.9,30.20,WSW,246,7.0,12.0,-999,-99.99,,,-99.99,,2013-02-02 17:42:00,
2013-02-02 12:52:00,29.0,-99.9,30.17,WNW,285,2.0,11.0,-999,-99.99,,,-99.99,,2013-02-02 17:52:00,
2013-02-02 13:22:00,29.0,-99.9,30.17,WNW,285,2.0,11.0,-999,-99.99,,,-99.99,,2013-02-02 18:22:00,
2013-02-02 13:32:00,29.0,-99.9,30.17,WNW,285,2.0,11.0,-999,-99.99,,,-99.99,,2013-02-02 18:32:00,
2013-02-02 13:42:00,29.0,-99.9,30.17,WNW,285,2.0,11.0,-999,-99.99,,,-99.99,,2013-02-02 18:42:00,
2013-02-02 13:52:00,31.0,-99.9,30.13,West,271,5.0,10.0,-999,-99.99,,,-99.99,,2013-02-02 18:52:00,
2013-02-02 14:22:00,31.0,-99.9,30.13,West,271,5.0,10.0,-999,-99.99,,,-99.99,,2013-02-02 19:22:00,
2013-02-02 14:33:00,31.0,-99.9,30.13,West,271,5.0,10.0,-999,-99.99,,,-99.99,,2013-02-02 19:33:00,
2013-02-02 14:42:00,31.0,-99.9,30.13,West,271,5.0,10.0,-999,-99.99,,,-99.99,,2013-02-02 19:42:00,
2013-02-02 14:52:00,31.0,-99.9,30.11,SW,236,3.0,11.0,-999,-99.99,,,-99.99,,2013-02-02 19:52:00,
2013-02-02 15:22:00,31.0,-99.9,30.11,SW,236,3.0,11.0,-999,-99.99,,,-99.99,,2013-02-02 20:22:00,
2013-02-02 15:32:00,31.0,-99.9,30.11,SW,236,3.0,11.0,-999,-99.99,,,-99.99,,2013-02-02 20:32:00,
2013-02-02 15:42:00,31.0,-99.9,30.11,SW,236,3.0,11.0,-999,-99.99,,,-99.99,,2013-02-02 20:42:00,
2013-02-02 15:52:00,30.0,-99.9,30.10,West,262,4.0,10.0,-999,-99.99,,,-99.99,,2013-02-02 20:52:00,
2013-02-02 16:22:00,30.0,-99.9,30.10,West,262,4.0,10.0,-999,-99.99,,,-99.99,,2013-02-02 21:22:00,
2013-02-02 16:32:00,30.0,-99.9,30.10,West,262,4.0,10.0,-999,-99.99,,,-99.99,,2013-02-02 21:32:00,
2013-02-02 16:43:00,30.0,-99.9,30.10,West,262,4.0,10.0,-999,-99.99,,,-99.99,,2013-02-02 21:43:00,
2013-02-02 16:52:00,29.0,-99.9,30.09,West,261,5.0,9.0,-999,-99.99,,,-99.99,,2013-02-02 21:52:00,
2013-02-02 17:22:00,29.0,-99.9,30.09,West,261,5.0,9.0,-999,-99.99,,,-99.99,,2013-02-02 22:22:00,
2013-02-02 17:32:00,29.0,-99.9,30.09,West,261,5.0,9.0,-999,-99.99,,,-99.99,,2013-02-02 22:32:00,
2013-02-02 17:42:00,29.0,-99.9,30.09,West,261,5.0,9.0,-999,-99.99,,,-99.99,,2013-02-02 22:42:00,
2013-02-02 17:52:00,28.0,-99.9,30.08,WSW,248,3.0,9.0,-999,-99.99,,,-99.99,,2013-02-02 22:52:00,
2013-02-02 18:22:00,28.0,-99.9,30.08,WSW,248,3.0,9.0,-999,-99.99,,,-99.99,,2013-02-02 23:22:00,
2013-02-02 18:33:00,28.0,-99.9,30.08,WSW,248,3.0,9.0,-999,-99.99,,,-99.99,,2013-02-02 23:33:00,
2013-02-02 18:42:00,28.0,-99.9,30.08,WSW,248,3.0,9.0,-999,-99.99,,,-99.99,,2013-02-02 23:42:00,
2013-02-02 18:52:00,28.0,-99.9,30.08,WSW,255,7.0,11.0,-999,-99.99,,,-99.99,,2013-02-02 23:52:00,
2013-02-02 19:22:00,28.0,-99.9,30.08,WSW,255,7.0,11.0,-999,-99.99,,,-99.99,,2013-02-03 00:22:00,
2013-02-02 19:32:00,28.0,-99.9,30.08,WSW,255,7.0,11.0,-999,-99.99,,,-99.99,,2013-02-03 00:32:00,
2013-02-02 19:42:00,28.0,-99.9,30.08,WSW,255,7.0,11.0,-999,-99.99,,,-99.99,,2013-02-03 00:42:00,
2013-02-02 19:52:00,28.0,-99.9,30.07,WSW,256,7.0,9.0,-999,-99.99,,,-99.99,,2013-02-03 00:52:00,
2013-02-02 20:21:00,28.0,-99.9,30.07,WSW,256,7.0,9.0,-999,-99.99,,,-99.99,,2013-02-03 01:21:00,
2013-02-02 20:32:00,28.0,-99.9,30.07,WSW,256,7.0,9.0,-999,-99.99,,,-99.99,,2013-02-03 01:32:00,
2013-02-02 20:42:00,28.0,-99.9,30.07,WSW,256,7.0,9.0,-999,-99.99,,,-99.99,,2013-02-03 01:42:00,
2013-02-02 20:52:00,26.0,-99.9,30.07,West,279,4.0,8.0,-999,-99.99,,,-99.99,,2013-02-03 01:52:00,
2013-02-02 21:22:00,26.0,-99.9,30.07,West,279,4.0,8.0,-999,-99.99,,,-99.99,,2013-02-03 02:22:00,
2013-02-02 21:32:00,26.0,-99.9,30.07,West,279,4.0,8.0,-999,-99.99,,,-99.99,,2013-02-03 02:32:00,
2013-02-02 21:42:00,26.0,-99.9,30.07,West,279,4.0,8.0,-999,-99.99,,,-99.99,,2013-02-03 02:42:00,
2013-02-02 21:52:00,25.0,-99.9,30.07,NW,319,2.0,8.0,-999,-99.99,,,-99.99,,2013-02-03 02:52:00,
2013-02-02 22:22:00,25.0,-99.9,30.07,NW,319,2.0,8.0,-999,-99.99,,,-99.99,,2013-02-03 03:22:00,
2013-02-02 22:32:00,25.0,-99.9,30.07,NW,319,2.0,8.0,-999,-99.99,,,-99.99,,2013-02-03 03:32:00,
2013-02-02 22:42:00,25.0,-99.9,30.07,NW,319,2.0,8.0,-999,-99.99,,,-99.99,,2013-02-03 03:42:00,
2013-02-02 22:52:00,24.0,-99.9,30.05,WNW,286,2.0,5.0,-999,-99.99,,,-99.99,,2013-02-03 03:52:00,
2013-02-02 23:22:00,24.0,-99.9,30.05,WNW,286,2.0,5.0,-999,-99.99,,,-99.99,,2013-02-03 04:22:00,
2013-02-02 23:32:00,24.0,-99.9,30.05,WNW,286,2.0,5.0,-999,-99.99,,,-99.99,,2013-02-03 04:32:00,
2013-02-02 23:42:00,24.0,-99.9,30.05,WNW,286,2.0,5.0,-999,-99.99,,,-99.99,,2013-02-03 04:42:00,
2013-02-02 23:52:00,24.0,-99.9,30.03,West,262,-999.0,-999.0,-999,-99.99,,,-99.99,,2013-02-03 04:52:00,